Wind_Speed
41 42 43 44 45 45 46 47 47 47 46 47 48 48 49 48 48 47 46 46 46 45 44 43 42 41 40 38 37 36 35 34 33 32 31 30 29 28
44 44 45 46 46 47 47 47 47 47 47 47 48 48 48 47 47 46 45 45 44 44 43 42 41 39 38 36 36 35 34 32 32 31 30 29 29 28
45 45 46 46 46 47 47 47 47 48 47 47 47 47 46 46 45 44 44 43 42 42 41 40 38 37 36 35 34 33 32 31 30 30 29 28 28 29
47 46 46 46 47 47 47 47 47 46 46 45 45 45 45 44 44 43 43 42 41 40 39 38 37 35 34 33 32 31 31 30 29 29 28 27 28 28
46 46 46 46 46 46 46 45 45 45 45 44 44 43 43 43 43 42 41 41 40 38 37 36 35 34 32 32 31 30 30 29 28 27 27 27 27 27
45 45 45 45 45 44 44 44 44 44 43 43 43 42 42 42 41 41 40 39 38 37 36 34 33 31 30 29 29 29 28 27 27 27 27 27 27 27
45 44 44 44 43 43 43 43 43 42 42 42 42 41 41 40 39 38 38 37 36 35 33 32 31 30 29 28 28 27 27 27 27 26 26 27 27 27
44 44 43 43 43 43 42 42 42 41 41 41 41 40 39 38 37 36 35 34 33 32 31 30 29 28 28 27 26 25 25 25 25 25 26 26 26 26
44 44 43 43 42 42 42 42 41 41 40 40 39 38 37 36 35 34 33 32 31 30 29 28 27 27 27 26 25 25 25 25 25 25 26 26 26 26
45 44 43 42 42 42 41 41 41 40 39 38 38 36 35 35 34 33 32 31 30 29 28 27 26 26 26 25 25 25 25 25 25 25 26 26 26 26
45 44 44 43 42 41 41 41 40 39 38 37 36 35 34 33 32 31 30 30 29 27 27 26 25 25 25 25 25 25 24 24 24 25 25 25 26 27
45 44 44 43 42 41 41 40 39 38 37 35 34 33 32 32 31 30 29 28 27 26 26 25 24 24 24 24 24 24 24 24 24 25 25 26 26 27
45 44 43 42 41 41 40 39 38 37 36 35 34 32 31 31 30 29 28 27 26 25 25 24 24 24 24 24 24 24 25 25 25 26 26 27 27 28
44 43 42 41 40 39 39 38 38 36 35 34 33 32 31 30 30 29 27 26 26 25 25 24 24 24 24 25 25 25 26 26 26 27 28 29 29 30
43 42 41 40 39 39 38 38 37 36 35 34 33 32 30 30 29 28 27 27 26 26 25 25 25 25 26 26 26 27 27 27 28 28 29 30 30 31
43 42 41 40 39 39 38 37 36 35 34 33 32 31 30 29 29 28 27 27 27 26 26 26 26 27 27 27 28 28 29 29 29 30 30 31 32 32
43 42 41 41 40 38 37 36 36 35 34 32 32 31 30 29 29 29 28 28 27 27 27 27 28 28 28 29 29 30 30 30 31 31 31 32 33 33
43 42 41 40 39 38 37 36 35 34 34 33 32 31 31 30 29 29 29 29 29 29 28 28 29 29 30 30 31 31 32 32 32 32 33 33 34 35
43 42 41 40 39 38 37 37 35 35 34 33 33 32 31 31 30 30 30 30 29 29 29 30 30 31 32 32 32 33 33 33 34 34 34 35 36 37
42 41 41 40 39 39 38 37 36 35 34 33 33 32 32 32 32 31 31 31 31 31 31 32 32 33 33 33 34 35 35 35 35 35 36 36 37 38
41 40 40 40 39 38 38 37 36 35 34 34 33 33 33 33 32 32 32 32 32 32 33 33 33 33 34 35 35 36 36 36 36 36 36 37 37 37
40 40 39 39 38 38 37 37 36 35 35 34 34 34 33 32 32 32 33 33 33 33 34 34 35 35 35 35 36 37 37 37 37 37 37 38 38 38
41 40 39 39 38 37 37 36 36 35 35 34 34 33 33 33 33 33 34 34 34 35 35 36 36 36 36 37 37 38 38 38 37 37 38 38 38 38
Wind_Direction
277 279 281 283 284 285 287 288 289 289 289 289 289 289 289 290 290 290 289 288 287 287 285 284 283 281 279 276 275 273 271 269 268 265 262 260 257 255
277 278 280 282 284 286 287 288 288 289 289 288 289 289 289 290 290 289 289 288 287 286 285 284 283 280 277 275 274 272 269 267 264 261 259 257 254 251
276 279 281 282 283 285 286 287 287 288 288 288 288 288 289 289 289 289 289 288 287 286 285 284 282 280 277 274 272 269 267 264 261 258 255 254 252 250
276 277 279 281 282 284 285 285 286 286 287 287 288 288 288 289 289 288 288 287 287 285 284 282 280 278 275 273 270 267 265 262 258 255 254 252 251 249
275 277 278 279 280 282 283 284 285 285 286 287 287 288 288 289 288 288 287 286 285 284 283 280 279 276 274 271 268 265 263 260 256 253 251 251 250 248
275 276 277 278 279 280 281 283 284 285 286 287 288 288 288 288 288 287 286 285 284 282 281 279 277 274 272 270 267 264 262 257 254 252 251 251 249 247
273 275 276 277 279 280 281 283 284 285 286 287 288 288 288 288 287 286 285 284 282 280 279 276 274 272 270 268 265 262 259 256 254 252 252 250 248 247
272 273 274 276 278 279 281 282 284 285 286 286 287 287 287 287 286 286 285 283 281 279 277 274 272 270 268 266 263 260 258 256 253 252 251 249 248 247
271 272 274 276 277 279 281 282 284 285 285 285 286 286 285 285 285 284 283 282 280 278 275 273 272 270 267 265 262 260 257 255 254 252 250 249 249 248
270 272 273 274 276 278 280 282 283 283 284 284 284 284 283 283 283 282 281 280 278 276 273 272 271 269 266 264 263 261 259 256 254 253 252 251 249 247
269 270 272 273 275 277 279 280 281 281 282 282 281 281 281 281 281 280 279 278 276 274 272 271 270 268 266 264 262 261 259 257 256 254 253 252 250 249
268 269 271 272 274 276 278 279 279 279 279 279 279 278 278 279 278 277 277 276 274 272 270 269 267 266 265 264 263 261 259 258 257 256 255 255 253 252
266 268 269 271 273 275 276 277 277 277 276 276 276 275 275 276 276 276 275 273 272 270 269 268 267 266 265 265 263 262 260 259 258 258 257 257 256 255
265 266 267 269 271 272 274 275 275 274 273 273 273 273 273 273 273 273 272 271 270 269 268 267 267 267 266 265 264 263 262 262 261 261 260 259 258 258
263 264 266 267 269 271 272 273 273 272 270 269 270 270 271 271 271 270 270 269 270 269 267 267 267 267 267 266 265 264 264 264 264 264 263 262 262 261
261 262 263 265 267 268 270 270 270 269 268 266 267 268 268 269 269 269 268 268 269 268 268 268 268 268 268 268 267 265 265 265 265 265 265 265 264 264
260 261 262 263 265 266 267 267 267 266 265 264 264 266 266 267 267 267 266 267 267 267 268 269 269 269 269 270 269 268 267 267 266 266 266 266 266 266
258 259 260 261 262 263 265 265 265 264 262 263 263 264 265 265 266 266 266 267 268 268 269 269 269 270 270 271 271 270 269 268 268 268 268 268 268 268
257 258 258 258 259 261 262 263 262 261 261 262 261 262 263 264 265 266 266 266 267 268 269 270 271 271 272 271 271 270 270 270 270 269 269 269 270 270
256 256 256 257 258 260 260 260 259 259 259 260 260 261 262 263 264 265 265 266 267 269 270 271 272 273 273 272 271 271 271 271 271 271 271 271 271 271
253 254 255 255 256 257 257 256 257 257 258 259 260 260 261 262 263 263 265 266 268 270 271 272 273 274 275 273 273 272 272 272 272 272 272 272 272 272
251 252 253 255 255 255 255 255 255 256 257 258 259 260 260 261 262 263 265 267 268 270 271 273 274 275 274 274 273 273 273 273 273 273 273 273 273 272
250 251 252 253 253 253 253 254 254 254 256 257 258 259 259 260 262 264 266 267 269 270 272 273 274 274 275 274 274 274 274 273 274 274 275 274 274 272
Height
5743 5742 5742 5741 5740 5738 5736 5734 5733 5731 5729 5725 5721 5718 5715 5712 5709 5706 5703 5701 5698 5695 5693 5691 5689 5687 5686 5685 5684 5683 5682 5682 5682 5682 5683 5684 5685 5686
5732 5731 5731 5730 5728 5727 5725 5723 5721 5719 5717 5714 5710 5707 5703 5700 5697 5694 5692 5689 5686 5684 5682 5680 5678 5677 5675 5674 5673 5673 5672 5672 5673 5673 5674 5676 5677 5678
5721 5720 5719 5718 5717 5715 5713 5711 5709 5707 5705 5703 5699 5696 5692 5689 5686 5683 5680 5678 5675 5673 5671 5669 5667 5666 5665 5664 5663 5663 5663 5663 5664 5665 5666 5667 5669 5671
5709 5708 5707 5706 5705 5703 5701 5699 5697 5694 5692 5690 5687 5684 5681 5678 5675 5672 5669 5667 5664 5662 5660 5658 5657 5656 5655 5654 5654 5654 5654 5654 5655 5656 5658 5659 5661 5663
5696 5695 5695 5694 5692 5691 5689 5687 5685 5683 5680 5678 5676 5672 5670 5667 5664 5661 5658 5656 5654 5652 5650 5648 5647 5646 5645 5645 5645 5645 5645 5646 5647 5648 5650 5651 5653 5655
5683 5683 5682 5681 5680 5679 5677 5675 5673 5671 5669 5666 5664 5661 5658 5655 5653 5650 5648 5646 5644 5642 5640 5639 5638 5637 5636 5636 5636 5636 5637 5638 5639 5640 5642 5644 5645 5647
5671 5671 5670 5669 5668 5667 5665 5663 5661 5659 5657 5655 5652 5650 5647 5644 5642 5640 5637 5635 5633 5632 5630 5629 5628 5628 5628 5628 5628 5628 5629 5630 5631 5633 5634 5636 5638 5640
5658 5658 5658 5657 5656 5655 5653 5651 5650 5648 5646 5643 5641 5639 5636 5634 5632 5629 5628 5626 5624 5623 5622 5621 5620 5619 5619 5619 5620 5620 5621 5622 5624 5625 5627 5628 5630 5632
5646 5645 5645 5644 5644 5643 5641 5640 5638 5636 5634 5632 5630 5628 5626 5624 5622 5620 5618 5617 5615 5614 5613 5612 5612 5612 5612 5612 5612 5613 5614 5615 5616 5618 5619 5621 5623 5624
5633 5633 5632 5632 5631 5630 5629 5628 5626 5624 5623 5621 5619 5617 5615 5614 5612 5611 5609 5608 5606 5605 5605 5605 5604 5604 5604 5604 5605 5605 5607 5608 5609 5610 5612 5613 5615 5617
5619 5620 5620 5620 5619 5618 5617 5616 5614 5613 5611 5610 5608 5607 5606 5604 5603 5602 5600 5599 5598 5597 5597 5597 5596 5597 5597 5597 5598 5598 5599 5600 5602 5603 5604 5606 5607 5609
5606 5606 5606 5607 5606 5605 5605 5604 5603 5602 5601 5599 5598 5597 5596 5595 5594 5593 5592 5591 5590 5590 5589 5589 5589 5589 5590 5590 5591 5591 5592 5593 5594 5595 5597 5598 5599 5601
5593 5593 5593 5594 5593 5593 5592 5592 5591 5591 5590 5589 5588 5587 5587 5586 5585 5584 5583 5583 5582 5582 5582 5582 5582 5582 5583 5583 5584 5584 5585 5586 5587 5588 5589 5590 5591 5593
5579 5580 5580 5580 5581 5580 5580 5580 5580 5579 5579 5579 5578 5578 5577 5577 5576 5576 5575 5575 5574 5574 5574 5574 5575 5575 5575 5576 5576 5577 5578 5578 5579 5580 5581 5581 5582 5583
5565 5566 5567 5568 5568 5568 5568 5568 5569 5568 5568 5568 5568 5568 5568 5568 5567 5567 5567 5567 5566 5566 5566 5567 5567 5567 5568 5568 5568 5569 5570 5570 5570 5571 5572 5572 5573 5574
5552 5553 5554 5555 5556 5556 5557 5557 5557 5558 5558 5558 5558 5559 5559 5558 5558 5558 5558 5558 5558 5558 5558 5559 5559 5559 5559 5560 5560 5560 5561 5561 5562 5562 5562 5562 5563 5563
5538 5540 5541 5542 5544 5545 5545 5546 5546 5547 5547 5548 5549 5549 5549 5549 5549 5550 5550 5550 5550 5550 5550 5550 5550 5550 5551 5551 5551 5551 5551 5552 5552 5552 5552 5552 5552 5553
5524 5526 5528 5530 5531 5533 5534 5535 5535 5536 5537 5538 5539 5539 5540 5540 5540 5540 5540 5541 5541 5541 5541 5541 5541 5541 5541 5541 5542 5541 5541 5541 5542 5542 5541 5541 5541 5542
5511 5513 5515 5517 5519 5521 5522 5523 5524 5525 5527 5527 5528 5529 5530 5530 5531 5531 5531 5531 5531 5532 5532 5532 5532 5531 5531 5531 5531 5531 5531 5531 5531 5531 5530 5530 5530 5529
5498 5500 5503 5505 5506 5508 5510 5512 5513 5515 5516 5517 5518 5519 5519 5520 5521 5521 5521 5522 5522 5522 5522 5522 5522 5521 5521 5521 5520 5520 5519 5519 5519 5519 5519 5518 5517 5517
5485 5488 5490 5492 5494 5496 5498 5500 5502 5503 5505 5506 5507 5508 5509 5510 5510 5511 5511 5511 5512 5512 5511 5511 5511 5511 5510 5509 5509 5508 5508 5508 5507 5507 5506 5506 5505 5504
5472 5475 5477 5480 5482 5484 5486 5488 5490 5492 5494 5495 5496 5497 5498 5499 5500 5500 5501 5501 5501 5501 5501 5501 5500 5499 5499 5498 5497 5497 5496 5495 5495 5494 5494 5493 5492 5492
5459 5462 5465 5468 5470 5472 5475 5477 5479 5481 5483 5484 5485 5487 5488 5489 5489 5490 5490 5490 5490 5490 5490 5489 5489 5488 5487 5486 5485 5485 5484 5483 5482 5482 5481 5480 5480 5479